Location: Arroyo Retuerta
(40.5469°N, 4.3534°W)
Time: 12:08:56
(UTC+00:00)

OE (NEXTSAT) - Pass Details

Date: 01 June 2020
Orbit: 432 x 439 km, 46.0° (Epoch: 05 July)

Event Time Altitude Azimuth Distance (km) Brightness Sun altitude
Rises 21:33:06 0° 231° (SW) 2,406 8.1 -16.8°
Reaches altitude 10° 21:35:15 10° 227° (SW) 1,540 7.1 -17.0°
Maximum altitude 21:38:39 53° 149° (SSE) 539 4.4 -17.4°
Enters shadow 21:39:06 49° 117° (ESE) 573 4.5 -17.5°
